Weather in Kireyevsk

Russia / Tomsk District     56°22′03″N   84°05′27″E
temp.,
°C
wind,
m/s
gust,
m/s
humid.,
%
clouds,
%
prec.,
mm/h
press.,
hPa
HPBL,
m
21 june, mon
mon2101:00+7sse310916 0.1 1008255
04:00+5se38979 0.0 1008187
07:00+9se488080 0.0 1007317
10:00+15se465494 0.0 1006904
13:00+17sse6750100 0.0 10061934
16:00+13s5871100 0.1 1007990
19:00+10e3796100 3.1 1008401
22:00+10e2498100 0.4 1008240
22 june, tue
tue2201:00+8e119965 0.4 100818
04:00+9ne229769 0.0 100766
07:00+10nne239695 0.0 1007184
10:00+14nne3476100 0.0 1007852
13:00+15n3473100 0.6 1006772
16:00+11ene1398100 9.1 1008235
19:00+10nnw3599100 17.8 1008233
22:00+10n3698100 0.6 1009310
23 june, wed
wed2301:00+9nnw4899100 3.1 1009520
04:00+8nnw3898100 0.9 1010440
07:00+9wnw369760 1.4 1011384
10:00+12nw237572 0.4 1012905
13:00+13w236681 1.2 10121086
16:00+16sw344980 0.1 10111976
19:00+14s237883 0.8 1012494
22:00+10ese229219 0.9 101115
24 june, thu
thu2401:00+8e2396100 0.9 101049
04:00+7ene2397100 0.0 100951
07:00+9ene3797100 0.0 1007201
10:00+13ene4781100 0.0 1006554
13:00+16e5864100 0.3 10051747
16:00+12ene2596100 1.7 1005292
19:00+12ene369590 1.9 1005400
22:00+10e249613 1.3 100670
25 june, fri
fri2501:00+8ese239761 1.4 100669
04:00+9e2698100 0.1 1005255
07:00+9e3698100 0.3 1006361
10:00+10ene3697100 0.3 1006398
13:00+11e3494100 0.8 1007467
16:00+12ene128697 0.6 1007508
19:00+11ese1194100 1.5 1008126
22:00+10s119654 0.1 100812